CRYOCUBE

Last updated on Wed Nov 24 2021 00:02:04 GMT+0000 (Coordinated Universal Time)

1 45260U 98067RD 21327.08263922 .07088824 12128-4 11344-2 0 9994 2 45260 51.6168 224.3138 0006885 221.9743 138.0753 16.32835508100362

Satellite not in orbit

CRYOCUBE